Location: Breungeshain
(50.5000°N, 9.2000°E)
Time: 10:11:20
(UTC+00:00)

ISS - Pass Details

Date: 21 May 2018
Orbit: 402 x 407 km, 51.6° (Epoch: 24 May)

Event Time Altitude Azimuth Distance (km) Brightness Sun altitude
Rises 20:15:07 0° 211° (SSW) 2,310 -0.2 -8.4°
Reaches altitude 10° 20:17:30 10° 195° (SSW) 1,453 -1.3 -8.6°
Maximum altitude 20:20:02 21° 144° (SE) 964 -2.5 -8.9°
Drops below altitude 10° 20:22:35 10° 92° (E) 1,459 -1.4 -9.2°
Sets 20:24:58 0° 76° (ENE) 2,321 -0.3 -9.4°
